Regional Weather Roundup
Issued by NWS

Home | Current Version | Previous Version | Text Only | Print | Product List | Glossary On
Versions: 1 2 3 4 5 6 7 8 9 10 11 12 13 14 15 16 17 18 19 20 21 22 23 24 25 26 27 28 29 30 31 32 33 34 35 36 37 38 39 40 41 42 43 44 45 46 47 48 49 50
000
ASUS43 KDTX 241301
RWRMI
MICHIGAN HOURLY REGIONAL WEATHER ROUNDUP
NATIONAL WEATHER SERVICE DETROIT/PONTIAC MI
900 AM EDT SUN JUL 24 2016

NOTE: "FAIR" INDICATES FEW OR NO CLOUDS BELOW 12,000 FEET WITH NO
SIGNIFICANT WEATHER AND/OR OBSTRUCTION TO VISIBILITY.

MIZ047>049-052>055-059>063-066>070-074>076-081>083-241400-
SOUTHEAST LOWER MICHIGAN

CITY           SKY/WX    TMP DP  RH WIND       PRES   REMARKS
ADRIAN         CLOUDY    75  73  93 W6        29.98R
ALMA           RAIN      72  72  98 S7        29.96R
ANN ARBOR      CLOUDY    76  71  85 S3        29.96R
BAD AXE        CLOUDY    72  59  64 SE3       29.96R
CARO           CLOUDY    74  63  68 CALM      29.96R
DETROIT CITY   CLOUDY    79  67  66 S8        29.96R
DETROIT        CLOUDY    80  69  69 SE6       29.96R
FLINT          CLOUDY    79  63  57 W9        29.99R
GROSSE ILE     PTSUNNY   79  73  81 S7        29.95R
HOWELL         RAIN      72  69  91 W8        30.00R

CITY           SKY/WX    TMP DP  RH WIND       PRES   REMARKS
JACKSON        LGT RAIN  72  72 100 MISG      29.99R FOG
LAMBERTVILLE   CLOUDY    78  72  80 CALM      29.96S
LANSING        RAIN      72  69  90 SE3       29.98R FOG
LAPEER         PTSUNNY   76  62  61 S6        29.96R
MASON          RAIN      71  70  95 W5        29.99R
MONROE         CLOUDY    79  72  80 S3        29.94S
PONTIAC        CLOUDY    77  65  66 S6        29.96R
PORT HOPE        N/A     74  62  66 S7        29.94R
PORT HURON     CLOUDY    72  64  78 S3        29.98R
TRI CITIES     LGT RAIN  73  66  78 SW6       29.97R
MIDLAND        LGT RAIN  70  69  95 CALM      29.95R
TROY           CLOUDY    79  64  61 CALM      29.98S
SAGINAW HB     CLOUDY    73  63  68 CALM      29.96R
$$
MIZ043>046-050>051-056>058-064>065-071>073-077>080-241400-
SOUTHWEST LOWER MICHIGAN

CITY           SKY/WX    TMP DP  RH WIND       PRES   REMARKS
BATTLE CREEK   CLOUDY    70  70 100 S9        29.97R
BENTON HARBOR  PTSUNNY   74  70  87 S7        29.95R
BIG RAPIDS     RAIN      70  70 100 S10       29.90F
COLDWATER      CLOUDY    73  73 100 SW5       29.99R
FREMONT        HVY RAIN  69  69 100 SW5       29.96R
HOLLAND        TSTM      70  68  93 W6G18     30.00F VSB 3/4
GRAND RAPIDS   TSTM      71  69  93 W12       29.96F
IONIA          HVY RAIN  71  69  95 CALM      29.95R
KALAMAZOO      CLOUDY    74  71  91 S7        29.98R
LUDINGTON      RAIN      70  70  99 S10       29.89R
MARSHALL       CLOUDY    72  72 100 CALM      29.97R
MOUNT PLEASANT HVY RAIN  72  70  94 S3        29.95R
MUSKEGON       TSTM      70  68  93 SE6       29.95S
SOUTH HAVEN    PTSUNNY   73  72  96 CALM      29.95R
$$
MIZ016>042-241400-
NORTHERN LOWER MICHIGAN

CITY           SKY/WX    TMP DP  RH WIND       PRES   REMARKS
ALPENA         CLOUDY    71  65  81 S10       29.92F
BEAVER ISLAND  DRIZZLE   70  69  96 S7        29.87S
BELLAIRE       CLOUDY    73  68  86 S3        29.88F
CADILLAC       CLOUDY    70  68  94 SW7       29.91F
CHARLEVOIX     CLOUDY    75  67  77 S6        29.90F
FRANKFORT      CLOUDY    72  69  88 CALM      29.87R
GAYLORD        CLOUDY    73  65  75 S9        29.91F
GRAYLING       LGT RAIN  71  68  90 CALM      29.92F
HARBOR SPRINGS CLOUDY    73  66  80 CALM      29.88S
HOUGHTON LAKE  LGT RAIN  70  67  90 S9        29.91F
MANISTEE       CLOUDY    71  69  93 SE3       29.87S
OSCODA         LGT RAIN  70  65  85 S3        29.95R
PELLSTON       CLOUDY    69  64  84 E3        29.89F
ROGERS CITY    CLOUDY    68  62  80 S7        29.91F
TRAVERSE CITY  CLOUDY    74  70  87 CALM      29.85F
$$
MIZ007>008-015-241400-
EASTERN UPPER MICHIGAN

CITY           SKY/WX    TMP DP  RH WIND       PRES   REMARKS
KINROSS        CLOUDY    65  64  97 E10       29.89F
MACKINAC ISLAN CLOUDY    66  66 100 E6        29.88F
NEWBERRY       CLOUDY    66  65  97 SE7       29.86F FOG
S. S. MARIE    LGT RAIN  66  64  93 E6        29.90F FOG
$$
MIZ004>006-011>014-085-241400-
CENTRAL UPPER MICHIGAN

CITY           SKY/WX    TMP DP  RH WIND       PRES   REMARKS
MANISTIQUE     CLOUDY    69  68  97 S8        29.83F
ESCANABA       CLOUDY    72  70  94 S6        29.81F
SAWYER-GWINN   FOG       66  66 100 S14       29.78F VSB 1
$$
MIZ001>003-009>011-084-241400-
WESTERN UPPER MICHIGAN

CITY           SKY/WX    TMP DP  RH WIND       PRES   REMARKS
IRON MOUNTAIN  CLOUDY    71  68  90 S12G20    29.75R
HOUGHTON       FOG       67  66  97 NE5       29.73R VSB 1
COPPER HARBOR    N/A     67  66  97 SW8       29.72F
IRONWOOD       PTSUNNY   70  66  88 W13       29.76S
$$

ABBREVIATIONS USED IN REMARKS
   TC - TEMPERATURE IN CELSIUS
  WCI - WIND CHILL INDEX
   HX - HEAT INDEX
  VSB - VISIBILITY




USA.gov is the U.S. government's official web portal to all federal, state and local government web resources and services.